Virtual Norwegian is not affiliated with Norwegian Air Shuttle in any way.
If you are looking for the real "Norwegian", or you wish to book Norwegian flights, please visit Norwegian.com


We use cookies to ensure you get the best experience on our website.   ACCEPT

KBOS - BOS - Boston (General Edward Lawrence Logan Intl)

General Info Alternate Airport
ICAO: KBOS Elevation: 19 ft ICAO: KBDL
IATA: BOS Country: United States IATA: BDL
City: Boston Charts: Log in to view charts City: Windsor Locks
Name: General Edward Lawrence Logan Intl Hub: No Name Bradley Intl
General Info
ICAO: KBOS
IATA: BOS
City: Boston
Name: General Edward Lawrence Logan Intl
Elevation: 19 ft
Country: United States
Charts: Log in to view charts
Hub: No
 
Alternate Airport
ICAO: KBDL
IATA: BDL
City: Windsor Locks
Name: Bradley Intl

Weather
210354Z 27008KT 10SM FEW220 22/11 A3010 RMK AO2 SLP193 T02170106
Weather
210354Z 27008KT 10SM FEW220 22/11 A3010 RMK AO2 SLP193 T02170106

Runway Info
04L
Length ILS/LOC Heading
2396 m N/A 020
04R
Length ILS/LOC Course
3050 m 110.30 036
09
Length ILS/LOC Heading
2134 m N/A 076
14
Length ILS/LOC Heading
1524 m N/A 126
15L
Length ILS/LOC Heading
779 m N/A 135
15R
Length ILS/LOC Course
3073 m 110.70 150
22L
Length ILS/LOC Course
3050 m 110.30 216
22R
Length ILS/LOC Heading
2396 m N/A 200
27
Length ILS/LOC Course
2134 m 111.30 273
32
Length ILS/LOC Heading
1524 m N/A 306
33L
Length ILS/LOC Course
3073 m 110.70 331
33R
Length ILS/LOC Heading
779 m N/A 315

NOTAMs
NOTAMs currently unavailable.
NOTAMs
NOTAMs currently unavailable

Route map
Airport
Airport (hub)